Location: Northam
(31.6525°S, 116.6655°E)
Time: 23:51:37
(UTC+08:00)

Envisat - Pass Details

Date: 20 May 2021
Orbit: 764 x 766 km, 98.1° (Epoch: 14 June)

Event Time Altitude Azimuth Distance (km) Brightness Sun altitude
Rises 04:58:17 0° 13° (NNE) 3,215 6.5 -25.2°
Reaches altitude 10° 05:00:34 10° 12° (NNE) 2,297 5.7 -24.7°
Maximum altitude 05:05:39 86° 283° (WNW) 777 2.9 -23.6°
Enters shadow 05:08:26 28° 194° (SSW) 1,424 4.1 -23.0°
